• In Portugal
  • List of Countries
  • For 7 days
  • Water Temperature
  • Satellite Maps
  • Weather Map
  • Weather Widgets
  • user-avatar
    Login

    Hourly Weather Sumgayit

    Today, 24 October, Wednesday

    Time Temperature Precipitation Wind Pressure Humidity
    00:00 +17°C° 0 mm 2 mps 739 mmHg 81%
    01:00 +17°C° 0 mm 2 mps 739 mmHg 80%
    02:00 +17°C° 0 mm 2 mps 739 mmHg 79%
    03:00 +17°C° 0 mm 3 mps 739 mmHg 79%
    04:00 +17°C° 0 mm 3 mps 738 mmHg 78%
    05:00 +17°C° 0 mm 4 mps 738 mmHg 78%
    06:00 +17°C° 0 mm 4 mps 738 mmHg 78%
    07:00 +17°C° 0 mm 5 mps 738 mmHg 73%
    08:00 +19°C° 0 mm 5 mps 738 mmHg 68%
    09:00 +20°C° 0 mm 6 mps 738 mmHg 63%
    10:00 +21°C° 0 mm 7 mps 737 mmHg 57%
    11:00 +22°C° 0 mm 7 mps 736 mmHg 50%
    12:00 +23°C° 0 mm 8 mps 736 mmHg 44%
    13:00 +23°C° 0 mm 8 mps 735 mmHg 42%
    14:00 +24°C° 0 mm 8 mps 734 mmHg 40%
    15:00 +24°C° 0 mm 8 mps 734 mmHg 38%
    16:00 +23°C° 0 mm 8 mps 733 mmHg 41%
    17:00 +22°C° 0 mm 7 mps 733 mmHg 44%
    18:00 +22°C° 0 mm 7 mps 732 mmHg 47%
    19:00 +21°C° 0 mm 7 mps 732 mmHg 47%
    20:00 +21°C° 0 mm 7 mps 732 mmHg 47%
    21:00 +21°C° 0 mm 7 mps 732 mmHg 47%
    22:00 +21°C° 0 mm 7 mps 731 mmHg 46%
    23:00 +21°C° 0 mm 7 mps 731 mmHg 44%

    Tomorrow, 25 October, Thursday

    Time Temperature Precipitation Wind Pressure Humidity
    00:00 +21°C° 0 mm 7 mps 730 mmHg 43%
    01:00 +20°C° 0 mm 7 mps 730 mmHg 42%
    02:00 +20°C° 0 mm 7 mps 730 mmHg 40%
    03:00 +20°C° 0 mm 8 mps 729 mmHg 39%
    04:00 +19°C° 0 mm 9 mps 729 mmHg 39%
    05:00 +19°C° 0 mm 9 mps 729 mmHg 40%
    06:00 +19°C° 0 mm 10 mps 728 mmHg 40%
    07:00 +21°C° 0 mm 11 mps 728 mmHg 37%
    08:00 +23°C° 0 mm 11 mps 729 mmHg 34%
    09:00 +24°C° 0 mm 12 mps 729 mmHg 32%
    10:00 +26°C° 0 mm 11 mps 728 mmHg 31%
    11:00 +27°C° 0 mm 11 mps 728 mmHg 30%
    12:00 +28°C° 0 mm 11 mps 727 mmHg 29%
    13:00 +28°C° 0 mm 10 mps 727 mmHg 29%
    14:00 +28°C° 0 mm 9 mps 726 mmHg 28%
    15:00 +29°C° 0 mm 8 mps 726 mmHg 28%
    16:00 +28°C° 0 mm 6 mps 726 mmHg 31%
    17:00 +26°C° 0 mm 5 mps 726 mmHg 34%
    18:00 +25°C° 0 mm 4 mps 726 mmHg 38%
    19:00 +25°C° 0 mm 3 mps 726 mmHg 40%
    20:00 +24°C° 0 mm 3 mps 727 mmHg 43%
    21:00 +24°C° 0 mm 3 mps 727 mmHg 45%
    22:00 +21°C° 0 mm 5 mps 728 mmHg 53%
    23:00 +20°C° 0 mm 8 mps 728 mmHg 62%

    Day after tomorrow, 26 October, Friday

    Time Temperature Precipitation Wind Pressure Humidity
    00:00 +18°C° 0 mm 10 mps 729 mmHg 70%
    01:00 +17°C° 0 mm 11 mps 729 mmHg 71%
    02:00 +16°C° 0 mm 11 mps 730 mmHg 72%
    03:00 +15°C° 0 mm 12 mps 731 mmHg 73%
    04:00 +14°C° 0.1 mm 12 mps 731 mmHg 73%
    05:00 +13°C° 0.1 mm 12 mps 732 mmHg 72%
    06:00 +13°C° 0.1 mm 12 mps 732 mmHg 71%
    07:00 +13°C° 0.1 mm 12 mps 733 mmHg 69%
    08:00 +13°C° 0.1 mm 11 mps 734 mmHg 67%
    09:00 +14°C° 0.1 mm 10 mps 735 mmHg 65%
    10:00 +13°C° 0 mm 10 mps 735 mmHg 65%
    11:00 +13°C° 0 mm 9 mps 735 mmHg 66%
    12:00 +13°C° 0 mm 9 mps 735 mmHg 66%
    13:00 +13°C° 0 mm 9 mps 735 mmHg 67%
    14:00 +13°C° 0 mm 9 mps 736 mmHg 68%
    15:00 +13°C° 0 mm 9 mps 736 mmHg 69%
    16:00 +12°C° 0.1 mm 9 mps 736 mmHg 69%
    17:00 +12°C° 0.1 mm 8 mps 737 mmHg 70%
    18:00 +11°C° 0.1 mm 8 mps 738 mmHg 70%
    19:00 +11°C° 0.9 mm 7 mps 738 mmHg 72%
    20:00 +11°C° 0.9 mm 6 mps 739 mmHg 74%
    21:00 +12°C° 0.9 mm 5 mps 740 mmHg 76%
    22:00 +12°C° 0.5 mm 5 mps 740 mmHg 76%
    23:00 +12°C° 0.5 mm 4 mps 740 mmHg 76%

    27 October, Saturday

    Time Temperature Precipitation Wind Pressure Humidity
    00:00 +12°C° 0.5 mm 3 mps 740 mmHg 75%
    01:00 +12°C° 0 mm 4 mps 740 mmHg 71%
    02:00 +12°C° 0 mm 5 mps 740 mmHg 68%
    03:00 +11°C° 0 mm 6 mps 740 mmHg 64%
    04:00 +11°C° 0 mm 6 mps 741 mmHg 64%
    05:00 +11°C° 0 mm 7 mps 742 mmHg 64%
    06:00 +11°C° 0 mm 7 mps 743 mmHg 64%
    07:00 +12°C° 0 mm 7 mps 744 mmHg 60%
    08:00 +14°C° 0 mm 6 mps 745 mmHg 56%
    09:00 +15°C° 0 mm 6 mps 746 mmHg 53%
    10:00 +15°C° 0 mm 6 mps 746 mmHg 50%
    11:00 +16°C° 0 mm 5 mps 747 mmHg 47%
    12:00 +16°C° 0 mm 5 mps 747 mmHg 45%
    13:00 +16°C° 0 mm 5 mps 747 mmHg 46%
    14:00 +16°C° 0 mm 5 mps 747 mmHg 47%
    15:00 +16°C° 0 mm 5 mps 747 mmHg 49%
    16:00 +17°C° 0 mm 4 mps 748 mmHg 54%
    17:00 +15°C° 0 mm 4 mps 748 mmHg 58%
    18:00 +14°C° 0 mm 3 mps 748 mmHg 63%
    19:00 +14°C° 0 mm 3 mps 749 mmHg 66%
    20:00 +14°C° 0 mm 3 mps 749 mmHg 68%
    21:00 +14°C° 0 mm 3 mps 749 mmHg 71%
    22:00 +14°C° 0 mm 3 mps 749 mmHg 72%
    23:00 +14°C° 0 mm 3 mps 748 mmHg 73%

    28 October, Sunday

    Time Temperature Precipitation Wind Pressure Humidity
    00:00 +14°C° 0 mm 4 mps 748 mmHg 74%
    01:00 +14°C° 0 mm 4 mps 748 mmHg 74%
    02:00 +14°C° 0 mm 4 mps 748 mmHg 74%
    03:00 +14°C° 0 mm 4 mps 748 mmHg 74%
    04:00 +14°C° 0 mm 4 mps 748 mmHg 75%
    05:00 +14°C° 0 mm 5 mps 748 mmHg 76%
    06:00 +14°C° 0 mm 5 mps 748 mmHg 77%
    07:00 +15°C° 0 mm 5 mps 749 mmHg 73%
    08:00 +15°C° 0 mm 6 mps 749 mmHg 68%
    09:00 +16°C° 0 mm 6 mps 749 mmHg 64%
    10:00 +17°C° 0 mm 6 mps 749 mmHg 60%
    11:00 +17°C° 0 mm 6 mps 748 mmHg 55%
    12:00 +19°C° 0 mm 6 mps 748 mmHg 50%
    13:00 +19°C° 0 mm 6 mps 748 mmHg 48%
    14:00 +20°C° 0 mm 6 mps 748 mmHg 46%
    15:00 +20°C° 0 mm 5 mps 747 mmHg 44%
    16:00 +19°C° 0 mm 5 mps 748 mmHg 47%
    17:00 +19°C° 0 mm 4 mps 748 mmHg 50%
    18:00 +18°C° 0 mm 4 mps 748 mmHg 53%
    19:00 +17°C° 0 mm 4 mps 749 mmHg 55%
    20:00 +17°C° 0 mm 3 mps 749 mmHg 57%
    21:00 +17°C° 0 mm 3 mps 749 mmHg 59%
    22:00 +16°C° 0 mm 3 mps 749 mmHg 60%
    23:00 +16°C° 0 mm 3 mps 749 mmHg 60%

    29 October, Monday

    Time Temperature Precipitation Wind Pressure Humidity
    00:00 +16°C° 0 mm 2 mps 749 mmHg 61%
    01:00 +16°C° 0 mm 2 mps 749 mmHg 62%
    02:00 +15°C° 0 mm 2 mps 749 mmHg 62%
    03:00 +15°C° 0 mm 2 mps 749 mmHg 62%
    04:00 +15°C° 0 mm 2 mps 749 mmHg 62%
    05:00 +15°C° 0 mm 1 mps 749 mmHg 62%
    06:00 +14°C° 0 mm 1 mps 749 mmHg 62%
    07:00 +16°C° 0 mm 2 mps 749 mmHg 58%
    08:00 +17°C° 0 mm 2 mps 750 mmHg 54%
    09:00 +18°C° 0 mm 3 mps 750 mmHg 50%
    10:00 +19°C° 0 mm 3 mps 750 mmHg 47%
    11:00 +20°C° 0 mm 3 mps 749 mmHg 44%
    12:00 +21°C° 0 mm 4 mps 749 mmHg 41%
    13:00 +21°C° 0 mm 4 mps 749 mmHg 42%
    14:00 +21°C° 0 mm 4 mps 749 mmHg 43%
    15:00 +21°C° 0 mm 4 mps 748 mmHg 43%
    16:00 +20°C° 0 mm 5 mps 748 mmHg 50%
    17:00 +19°C° 0 mm 5 mps 748 mmHg 56%
    18:00 +17°C° 0 mm 5 mps 748 mmHg 63%
    19:00 +17°C° 0 mm 5 mps 748 mmHg 66%
    20:00 +16°C° 0 mm 5 mps 748 mmHg 69%
    21:00 +16°C° 0 mm 5 mps 748 mmHg 73%
    22:00 +17°C° 0 mm 4 mps 748 mmHg 74%
    23:00 +15°C° 0 mm 4 mps 748 mmHg 76%

    30 October, Tuesday

    Time Temperature Precipitation Wind Pressure Humidity
    00:00 +15°C° 0 mm 4 mps 747 mmHg 77%
    01:00 +15°C° 0 mm 4 mps 747 mmHg 77%
    02:00 +15°C° 0 mm 4 mps 747 mmHg 77%
    03:00 +15°C° 0 mm 4 mps 747 mmHg 77%
    04:00 +14°C° 0 mm 5 mps 746 mmHg 78%
    05:00 +14°C° 0 mm 5 mps 746 mmHg 78%
    06:00 +14°C° 0 mm 5 mps 746 mmHg 79%
    07:00 +15°C° 0 mm 5 mps 746 mmHg 74%
    08:00 +16°C° 0 mm 6 mps 746 mmHg 70%
    09:00 +17°C° 0 mm 6 mps 746 mmHg 66%
    10:00 +19°C° 0 mm 6 mps 746 mmHg 61%
    11:00 +20°C° 0 mm 6 mps 746 mmHg 56%
    12:00 +21°C° 0 mm 6 mps 745 mmHg 50%
    13:00 +21°C° 0 mm 6 mps 745 mmHg 49%
    14:00 +21°C° 0 mm 6 mps 745 mmHg 48%
    15:00 +21°C° 0 mm 6 mps 744 mmHg 47%
    16:00 +21°C° 0 mm 6 mps 744 mmHg 52%
    17:00 +20°C° 0 mm 5 mps 744 mmHg 58%
    18:00 +19°C° 0 mm 5 mps 744 mmHg 63%
    19:00 +17°C° 0 mm 5 mps 744 mmHg 66%
    20:00 +17°C° 0 mm 5 mps 744 mmHg 69%
    21:00 +18°C° 0 mm 4 mps 744 mmHg 71%
    22:00 +17°C° 0 mm 4 mps 744 mmHg 74%
    23:00 +17°C° 0 mm 4 mps 744 mmHg 76%
    Show more